Raleigh County Memorial Airport
KBKW : now visible

Airfield :











YOU CAN JOIN US ON...

 
LOGIN :

Register | Disclaimer

   EN    FR    IT 

 









Legend :    VFR   Marginal VFR   IFR   Intensive IFR   Very Intensive IFR
Visi :
Ceiling :
>= 8 km
>= 3000ft
5 to 8 km
1000 to 3000 ft
1500m to 5 km
500 to 1000 ft
800 to 1500m
200 to 500 ft
< 800m
< 200 ft
Symbols :   Thunderstorms  Fog  Heavy snow  Heavy precipitations  Wind > 20 kt






- Airport Elevation : 2504 ft
- IATA code : BKW


KBKW - Raleigh County Memorial

CURRENT METAR :
  • 021851Z AUTO 03007KT 10SM BKN042 BKN055 21/11 A3015 RMK AO2 SLP187 T02110111 TSNO

EXPIRED METARs :
  • 021751Z AUTO 31006KT 10SM SCT038 22/12 A3016 RMK AO2 SLP188 T02170117 10222 20156 58004 TSNO
  • 021651Z AUTO 34010KT 9SM SCT033 21/12 A3016 RMK AO2 SLP193 T02110117 TSNO

TAF KBKW
Valid from the 02 at 18:00 until the 03 at 18:00 UTC


021720Z 0218/0318 36005KT P6SM FEW200
FM031200 13005KT P6SM BKN035
FM031400 13008KT P6SM -SHRA BKN030
FM031600 13009G15KT P6SM -SHRA BKN030
KZID FIR / North America



MET'MAP, your aeronautical weather chart ! - Copyright ORBIFLY December 2007 - Disclaimer

ORBIFLY MET'MAP TEAM :

Programming & Development : Alexandra Zaïnal
Concept & original design : Baudouin d'Aumeries
Assistance for programming : Marc-Olivier Méhu
Technical & hardware support : Manuel Goepfert

Contact : metmap@orbifly.com




SOURCES & CREDITS :

   NOAA       Earth
Advisory